Home   Weather   Qingdao   Past weeks
Flag for China

Past Weather in Qingdao, Shandong, China — Yesterday and Last 2 Weeks

Now
61 °F

Sunny.


Feels Like: 61 °F
Forecast: 61 / 49 °F
Wind: 13 mph from South

Location: Qingdao Airport

Current Time: Apr 6, 2020 at 4:46:12 pm

Latest Report: Apr 6, 2020 at 4:00 pm


Visibility: 10 mi

Pressure: 30.07 "Hg

Humidity: 36%

Dew Point: 34 °F

Location of QingdaoLocation

Past Weather in Qingdao — Graph

°F

Qingdao Temperature Yesterday

Maximum temperature yesterday: 61 °F (at 1:00 pm)
Minimum temperature yesterday: 36 °F (at 3:00 am)
Average temperature yesterday: 47 °F

High & Low Weather Summary for the Past Weeks

 TemperatureHumidityPressure
High73 °F (Mar 23, 2:00 pm)88% (Mar 26, 2:00 am)30.45 "Hg (Mar 26, 2:00 am)
Low34 °F (Mar 29, 3:00 am)11% (Apr 5, 1:00 pm)29.86 "Hg (Mar 26, 3:00 am)
Average51 °F45%30.17 "Hg
* Reported Mar 22 3:00 pm — Apr 6 3:00 pm, Qingdao. Weather by CustomWeather, © 2020

Note: Actual official high and low records may vary slightly from our data, if they occured in-between our weather recording intervals... More about our weather records

Qingdao Weather History for the Previous 24 Hours

Scroll right to see more
 ConditionsComfort  
Time TempWeatherWind HumidityBarometerVisibility
3:00 pm
Mon, Apr 6
61 °FSunny.15 mph31%30.07 "Hg10 mi
2:00 pm64 °FSunny.10 mph32%30.09 "Hg10 mi
1:00 pm63 °FSunny.10 mph39%30.12 "Hg10 mi
12:00 pm63 °FSunny.8 mph34%30.15 "Hg10 mi
11:00 am63 °FPassing clouds.8 mph39%30.15 "HgN/A
10:00 am61 °FPassing clouds.6 mph39%30.18 "HgN/A
9:00 am57 °FPassing clouds.6 mph48%30.18 "HgN/A
8:00 am55 °FSunny.6 mph44%30.18 "Hg10 mi
7:00 am50 °FSunny.No wind58%30.18 "Hg10 mi
6:00 am43 °FSunny.No wind61%30.18 "Hg10 mi
5:00 am45 °FClear.1 mph57%30.18 "Hg10 mi
4:00 am46 °FClear.3 mph53%30.18 "Hg10 mi
3:00 am45 °FClear.3 mph46%30.21 "Hg10 mi
2:00 am45 °FClear.6 mph49%30.21 "Hg10 mi
1:00 am46 °FClear.3 mph46%30.24 "Hg10 mi
12:00 am43 °FClear.6 mph57%30.27 "Hg10 mi
11:00 pm
Sun, Apr 5
43 °FClear.6 mph57%30.27 "Hg10 mi
10:00 pm45 °FClear.8 mph53%30.27 "Hg10 mi
9:00 pm45 °FClear.6 mph49%30.27 "Hg10 mi
8:00 pm45 °FClear.8 mph46%30.27 "Hg10 mi
7:00 pm46 °FClear.8 mph40%30.24 "Hg10 mi
6:00 pm52 °FSunny.13 mph30%30.24 "Hg10 mi
5:00 pm55 °FSunny.10 mph23%30.24 "Hg10 mi
4:00 pm59 °FPassing clouds.8 mph18%30.24 "HgN/A
Weather by CustomWeather, © 2020

See weather overview

Advertising